Hourly Weather Brussels

Today, 5 July, Sunday

Time Temperature Precipitation Wind Pressure Humidity
00:00 +18°C° 0 mm 7 mps 757 mmHg 87%
01:00 +18°C° 0 mm 7 mps 756 mmHg 87%
02:00 +18°C° 0 mm 7 mps 756 mmHg 87%
03:00 +18°C° 0 mm 7 mps 756 mmHg 87%
04:00 +18°C° 0 mm 7 mps 756 mmHg 85%
05:00 +18°C° 0 mm 8 mps 756 mmHg 84%
06:00 +18°C° 0 mm 8 mps 756 mmHg 79%
07:00 +18°C° 0 mm 8 mps 756 mmHg 79%
08:00 +18°C° 0 mm 8 mps 756 mmHg 78%
09:00 +19°C° 0 mm 9 mps 756 mmHg 78%
10:00 +20°C° 0 mm 8 mps 756 mmHg 78%
11:00 +20°C° 0 mm 8 mps 756 mmHg 77%
12:00 +20°C° 0 mm 8 mps 756 mmHg 77%
13:00 +21°C° 0 mm 8 mps 756 mmHg 73%
14:00 +21°C° 0 mm 9 mps 756 mmHg 70%
15:00 +21°C° 0 mm 9 mps 756 mmHg 66%
16:00 +21°C° 0 mm 9 mps 756 mmHg 64%
17:00 +20°C° 0 mm 8 mps 756 mmHg 63%
18:00 +20°C° 0 mm 8 mps 756 mmHg 61%
19:00 +17°C° 0 mm 8 mps 756 mmHg 64%
20:00 +16°C° 0 mm 7 mps 756 mmHg 67%
21:00 +14°C° 0 mm 7 mps 757 mmHg 70%
22:00 +14°C° 0 mm 7 mps 757 mmHg 69%
23:00 +14°C° 0 mm 6 mps 757 mmHg 68%

Tomorrow, 6 July, Monday

Time Temperature Precipitation Wind Pressure Humidity
00:00 +14°C° 0 mm 6 mps 757 mmHg 67%
01:00 +13°C° 0 mm 6 mps 757 mmHg 67%
02:00 +13°C° 0 mm 6 mps 757 mmHg 66%
03:00 +11°C° 0 mm 6 mps 757 mmHg 65%
04:00 +13°C° 0 mm 6 mps 757 mmHg 67%
05:00 +12°C° 0 mm 7 mps 757 mmHg 70%
06:00 +12°C° 0 mm 7 mps 758 mmHg 72%
07:00 +14°C° 0.1 mm 7 mps 758 mmHg 69%
08:00 +15°C° 0.1 mm 7 mps 758 mmHg 66%
09:00 +16°C° 0.1 mm 7 mps 759 mmHg 62%
10:00 +17°C° 0.1 mm 7 mps 759 mmHg 60%
11:00 +17°C° 0.1 mm 8 mps 759 mmHg 58%
12:00 +18°C° 0.1 mm 8 mps 759 mmHg 55%
13:00 +18°C° 0.1 mm 7 mps 759 mmHg 55%
14:00 +18°C° 0.1 mm 7 mps 760 mmHg 55%
15:00 +18°C° 0.1 mm 7 mps 760 mmHg 55%
16:00 +19°C° 0.1 mm 6 mps 761 mmHg 59%
17:00 +17°C° 0.1 mm 6 mps 761 mmHg 63%
18:00 +16°C° 0.1 mm 5 mps 761 mmHg 66%
19:00 +15°C° 0 mm 4 mps 762 mmHg 71%
20:00 +13°C° 0 mm 3 mps 763 mmHg 76%
21:00 +13°C° 0 mm 2 mps 763 mmHg 81%
22:00 +12°C° 0 mm 2 mps 764 mmHg 82%
23:00 +12°C° 0 mm 1 mps 764 mmHg 84%

Day after tomorrow, 7 July, Tuesday

Time Temperature Precipitation Wind Pressure Humidity
00:00 +11°C° 0 mm 1 mps 764 mmHg 86%
01:00 +11°C° 0 mm 1 mps 764 mmHg 86%
02:00 +10°C° 0 mm 0 mps 764 mmHg 87%
03:00 +9°C° 0 mm 0 mps 764 mmHg 87%
04:00 +11°C° 0 mm 1 mps 764 mmHg 84%
05:00 +13°C° 0 mm 1 mps 764 mmHg 80%
06:00 +14°C° 0 mm 2 mps 763 mmHg 77%
07:00 +15°C° 0 mm 2 mps 763 mmHg 70%
08:00 +17°C° 0 mm 3 mps 764 mmHg 62%
09:00 +19°C° 0 mm 3 mps 764 mmHg 55%
10:00 +20°C° 0 mm 4 mps 763 mmHg 54%
11:00 +21°C° 0 mm 5 mps 762 mmHg 52%
12:00 +21°C° 0 mm 5 mps 762 mmHg 51%
13:00 +22°C° 0 mm 5 mps 762 mmHg 50%
14:00 +22°C° 0 mm 5 mps 761 mmHg 49%
15:00 +22°C° 0 mm 5 mps 761 mmHg 47%
16:00 +22°C° 0 mm 4 mps 761 mmHg 51%
17:00 +21°C° 0 mm 4 mps 761 mmHg 55%
18:00 +20°C° 0 mm 3 mps 760 mmHg 59%
19:00 +19°C° 0 mm 3 mps 760 mmHg 61%
20:00 +18°C° 0 mm 3 mps 760 mmHg 63%
21:00 +16°C° 0 mm 3 mps 760 mmHg 65%
22:00 +15°C° 0 mm 4 mps 760 mmHg 65%
23:00 +15°C° 0 mm 4 mps 760 mmHg 65%

8 July, Wednesday

Time Temperature Precipitation Wind Pressure Humidity
00:00 +14°C° 0 mm 5 mps 759 mmHg 65%
01:00 +14°C° 0 mm 5 mps 759 mmHg 66%
02:00 +14°C° 0 mm 5 mps 759 mmHg 68%
03:00 +14°C° 0 mm 5 mps 759 mmHg 70%
04:00 +14°C° 0 mm 5 mps 759 mmHg 72%
05:00 +14°C° 0 mm 5 mps 758 mmHg 75%
06:00 +14°C° 0 mm 5 mps 758 mmHg 77%
07:00 +15°C° 0 mm 5 mps 759 mmHg 77%
08:00 +16°C° 0 mm 5 mps 759 mmHg 76%
09:00 +17°C° 0 mm 5 mps 759 mmHg 75%
10:00 +19°C° 0.1 mm 5 mps 759 mmHg 72%
11:00 +20°C° 0.1 mm 5 mps 759 mmHg 69%
12:00 +20°C° 0.1 mm 5 mps 759 mmHg 66%
13:00 +20°C° 0.1 mm 5 mps 759 mmHg 65%
14:00 +21°C° 0.1 mm 4 mps 760 mmHg 64%
15:00 +21°C° 0.1 mm 4 mps 760 mmHg 63%
16:00 +20°C° 0 mm 3 mps 760 mmHg 65%
17:00 +20°C° 0 mm 3 mps 760 mmHg 68%
18:00 +20°C° 0 mm 3 mps 760 mmHg 70%
19:00 +18°C° 0 mm 2 mps 761 mmHg 75%
20:00 +17°C° 0 mm 2 mps 761 mmHg 79%
21:00 +16°C° 0 mm 2 mps 761 mmHg 84%
22:00 +15°C° 0 mm 2 mps 761 mmHg 86%
23:00 +15°C° 0 mm 2 mps 761 mmHg 89%

9 July, Thursday

Time Temperature Precipitation Wind Pressure Humidity
00:00 +14°C° 0 mm 1 mps 761 mmHg 92%
01:00 +13°C° 0 mm 1 mps 761 mmHg 92%
02:00 +13°C° 0 mm 1 mps 761 mmHg 92%
03:00 +13°C° 0 mm 1 mps 761 mmHg 93%
04:00 +14°C° 0 mm 1 mps 761 mmHg 90%
05:00 +15°C° 0 mm 1 mps 761 mmHg 87%
06:00 +16°C° 0 mm 1 mps 762 mmHg 84%
07:00 +18°C° 0 mm 1 mps 762 mmHg 77%
08:00 +20°C° 0 mm 1 mps 762 mmHg 70%
09:00 +22°C° 0 mm 1 mps 762 mmHg 62%
10:00 +23°C° 0 mm 1 mps 761 mmHg 59%
11:00 +24°C° 0 mm 2 mps 761 mmHg 55%
12:00 +25°C° 0 mm 2 mps 761 mmHg 52%
13:00 +25°C° 0 mm 2 mps 760 mmHg 50%
14:00 +26°C° 0 mm 3 mps 760 mmHg 49%
15:00 +27°C° 0 mm 3 mps 759 mmHg 48%
16:00 +26°C° 0 mm 3 mps 759 mmHg 52%
17:00 +26°C° 0 mm 3 mps 759 mmHg 56%
18:00 +25°C° 0 mm 3 mps 758 mmHg 60%
19:00 +24°C° 0 mm 3 mps 758 mmHg 65%
20:00 +21°C° 0 mm 3 mps 758 mmHg 70%
21:00 +20°C° 0 mm 3 mps 758 mmHg 75%
22:00 +19°C° 0 mm 3 mps 758 mmHg 77%
23:00 +18°C° 0 mm 3 mps 757 mmHg 80%

10 July, Friday

Time Temperature Precipitation Wind Pressure Humidity
00:00 +17°C° 0 mm 3 mps 757 mmHg 82%
01:00 +17°C° 0 mm 3 mps 757 mmHg 84%
02:00 +16°C° 0 mm 3 mps 756 mmHg 86%
03:00 +16°C° 0 mm 3 mps 756 mmHg 88%
04:00 +16°C° 0 mm 3 mps 756 mmHg 86%
05:00 +17°C° 0 mm 4 mps 756 mmHg 85%
06:00 +17°C° 0 mm 4 mps 756 mmHg 83%
07:00 +17°C° 0.1 mm 5 mps 756 mmHg 82%
08:00 +17°C° 0.1 mm 5 mps 756 mmHg 81%
09:00 +17°C° 0.1 mm 5 mps 756 mmHg 80%
10:00 +17°C° 0 mm 5 mps 756 mmHg 74%
11:00 +19°C° 0 mm 5 mps 756 mmHg 68%
12:00 +19°C° 0 mm 6 mps 757 mmHg 62%
13:00 +19°C° 0 mm 6 mps 757 mmHg 58%
14:00 +20°C° 0 mm 6 mps 757 mmHg 54%
15:00 +20°C° 0 mm 6 mps 757 mmHg 50%
16:00 +19°C° 0 mm 6 mps 758 mmHg 52%
17:00 +19°C° 0 mm 6 mps 758 mmHg 54%
18:00 +17°C° 0 mm 6 mps 758 mmHg 56%
19:00 +15°C° 0 mm 5 mps 759 mmHg 61%
20:00 +14°C° 0 mm 4 mps 759 mmHg 65%
21:00 +12°C° 0 mm 3 mps 760 mmHg 69%
22:00 +12°C° 0 mm 3 mps 760 mmHg 73%
23:00 +11°C° 0 mm 3 mps 760 mmHg 77%
Show more